"2007/01/01",165,171,161
"2007/01/02",155,161,152
"2007/01/03",146,152,143
"2007/01/04",140,143,139
"2007/01/05",136,139,135
"2007/01/06",138,142,135
"2007/01/07",143,144,141
"2007/01/08",144,146,142
"2007/01/09",147,148,146
"2007/01/10",145,148,144
"2007/01/11",143,145,139
"2007/01/12",139,139,139
"2007/01/13",140,140,139
"2007/01/14",141,142,140
"2007/01/15",142,143,141
"2007/01/16",143,144,143
"2007/01/17",144,145,144
"2007/01/18",146,146,145
"2007/01/19",147,147,146
"2007/01/20",148,148,147
"2007/01/21",146,148,145
"2007/01/22",142,145,141
"2007/01/23",139,141,138
"2007/01/24",138,139,138
"2007/01/25",139,139,139
"2007/01/26",140,141,139
"2007/01/27",141,142,141
"2007/01/28",142,143,142
"2007/01/29",143,144,143
"2007/01/30",144,144,144
"2007/01/31",145,145,144
"2007/02/01",145,146,145
"2007/02/02",145,146,145
"2007/02/03",146,146,146
"2007/02/04",146,147,145
"2007/02/05",147,147,146
"2007/02/06",148,148,147
"2007/02/07",148,149,148
"2007/02/08",148,149,146
"2007/02/09",145,146,144
"2007/02/10",143,144,142
"2007/02/11",143,143,142
"2007/02/12",143,143,142
"2007/02/13",143,144,143
"2007/02/14",145,147,144
"2007/02/15",147,147,146
"2007/02/16",147,148,146
"2007/02/17",148,148,148
"2007/02/18",152,154,148
"2007/02/19",154,155,154
"2007/02/20",156,156,155
"2007/02/21",155,157,152
"2007/02/22",151,152,149
"2007/02/23",149,150,148
"2007/02/24",149,149,148
"2007/02/25",149,149,149
"2007/02/26",149,149,149
"2007/02/27",149,149,149
"2007/02/28",151,151,150
"2007/03/01",150,151,150
"2007/03/02",151,151,150
"2007/03/03",151,151,151
"2007/03/04",148,151,148
"2007/03/05",145,148,144
"2007/03/06",145,145,144
"2007/03/07",144,145,144
"2007/03/08",145,145,144
"2007/03/09",145,145,145
"2007/03/10",145,146,145
"2007/03/11",147,149,145
"2007/03/12",148,148,148
"2007/03/13",146,148,142
"2007/03/14",138,142,137
"2007/03/15",137,137,137
"2007/03/16",138,138,137
"2007/03/17",138,138,138
"2007/03/18",138,138,137
"2007/03/19",138,138,138
"2007/03/20",138,138,138
"2007/03/21",138,139,138
"2007/03/22",138,139,138
"2007/03/23",139,139,139
"2007/03/24",139,139,139
"2007/03/25",142,145,139
"2007/03/26",145,145,144
"2007/03/27",144,145,139
"2007/03/28",133,139,130
"2007/03/29",128,130,127
"2007/03/30",130,131,129
"2007/03/31",130,130,130
"2007/04/01",130,131,129
"2007/04/02",131,131,131
"2007/04/03",133,134,131
"2007/04/04",135,136,134
"2007/04/05",136,136,136
"2007/04/06",135,136,133
"2007/04/07",131,133,130
"2007/04/08",130,131,128
"2007/04/09",129,130,128
"2007/04/10",130,130,130
"2007/04/11",131,131,130
"2007/04/12",131,132,131
"2007/04/13",131,132,130
"2007/04/14",133,134,130
"2007/04/15",134,134,133
"2007/04/16",134,135,134
"2007/04/17",137,138,135
"2007/04/18",137,138,137
"2007/04/19",139,140,137
"2007/04/20",135,137,131
"2007/04/21",129,131,126
"2007/04/22",125,126,124
"2007/04/23",127,127,126
"2007/04/24",126,127,126
"2007/04/25",127,128,126
"2007/04/26",128,129,128
"2007/04/27",128,129,128
"2007/04/28",129,131,128
"2007/04/29",131,131,130
"2007/04/30",131,131,131
"2007/05/01",131,132,131
"2007/05/02",132,134,132
"2007/05/03",134,135,134
"2007/05/04",134,135,133
"2007/05/05",133,133,133
"2007/05/06",137,141,133
"2007/05/07",143,144,141
"2007/05/08",143,145,136
"2007/05/09",132,136,128
"2007/05/10",128,131,127
"2007/05/11",133,135,131
"2007/05/12",136,136,135
"2007/05/13",136,136,136
"2007/05/14",136,137,136
"2007/05/15",133,137,129
"2007/05/16",128,129,128
"2007/05/17",131,134,128
"2007/05/18",135,136,134
"2007/05/19",136,138,133
"2007/05/20",132,133,131
"2007/05/21",132,132,132
"2007/05/22",132,132,132
"2007/05/23",132,132,131
"2007/05/24",132,132,131
"2007/05/25",138,145,132
"2007/05/26",144,146,142
"2007/05/27",144,146,141
"2007/05/28",137,142,131
"2007/05/29",130,131,130
"2007/05/30",130,132,130
"2007/05/31",134,135,132
"2007/06/01",135,136,135
"2007/06/02",135,135,135
"2007/06/03",135,135,135
"2007/06/04",135,135,135
"2007/06/05",135,135,134
"2007/06/06",134,134,134
"2007/06/07",133,134,128
"2007/06/08",126,128,125
"2007/06/09",126,127,126
"2007/06/10",129,133,126
"2007/06/11",131,132,130
"2007/06/12",133,133,132
"2007/06/13",133,133,133
"2007/06/14",133,137,133
"2007/06/15",138,141,137
"2007/06/16",135,138,129
"2007/06/17",127,129,127
"2007/06/18",127,127,126
"2007/06/19",126,126,126
"2007/06/20",126,126,126
"2007/06/21",126,126,125
"2007/06/22",126,128,125
"2007/06/23",128,129,128
"2007/06/24",129,129,128
"2007/06/25",130,130,129
"2007/06/26",130,130,130
"2007/06/27",130,130,130
"2007/06/28",130,130,130
"2007/06/29",130,130,129
"2007/06/30",130,131,130
"2007/07/01",130,130,130
"2007/07/02",131,131,130
"2007/07/03",132,132,131
"2007/07/04",133,134,132
"2007/07/05",135,136,135
"2007/07/06",135,136,131
"2007/07/07",130,131,130
"2007/07/08",129,129,129
"2007/07/09",129,129,129
"2007/07/10",129,130,128
"2007/07/11",134,137,129
"2007/07/12",135,135,134
"2007/07/13",133,136,128
"2007/07/14",130,142,127
"2007/07/15",158,167,142
"2007/07/16",172,175,167
"2007/07/17",175,176,172
"2007/07/18",171,172,166
"2007/07/19",163,166,157
"2007/07/20",155,157,150
"2007/07/21",147,149,144
"2007/07/22",141,144,139
"2007/07/23",136,139,134
"2007/07/24",130,134,126
"2007/07/25",125,126,125
"2007/07/26",125,125,125
"2007/07/27",125,125,125
"2007/07/28",125,125,124
"2007/07/29",125,126,125
"2007/07/30",129,133,126
"2007/07/31",135,137,133
"2007/08/01",137,138,135
"2007/08/02",133,135,129
"2007/08/03",128,129,126
"2007/08/04",126,126,125
"2007/08/05",126,126,126
"2007/08/06",126,126,126
"2007/08/07",126,126,125
"2007/08/08",125,125,124
"2007/08/09",124,125,124
"2007/08/10",124,124,124
"2007/08/11",123,124,123
"2007/08/12",123,123,122
"2007/08/13",122,122,121
"2007/08/14",121,122,121
"2007/08/15",121,121,121
"2007/08/16",121,121,121
"2007/08/17",121,121,120
"2007/08/18",121,121,120
"2007/08/19",120,120,119
"2007/08/20",119,120,119
"2007/08/21",119,120,118
"2007/08/22",118,120,117
"2007/08/23",125,126,120
"2007/08/24",127,127,126
"2007/08/25",127,127,127
"2007/08/26",127,127,127
"2007/08/27",127,127,127
"2007/08/28",127,128,127
"2007/08/29",129,129,128
"2007/08/30",129,130,129
"2007/08/31",129,129,129
"2007/09/01",130,130,129
"2007/09/02",129,130,129
"2007/09/03",129,129,129
"2007/09/04",129,129,129
"2007/09/05",130,131,129
"2007/09/06",133,141,131
"2007/09/07",146,150,140
"2007/09/08",150,152,148
"2007/09/09",153,154,152
"2007/09/10",153,154,152
"2007/09/11",151,153,149
"2007/09/12",157,164,150
"2007/09/13",167,169,164
"2007/09/14",171,171,170
"2007/09/15",167,171,165
"2007/09/16",160,165,157
"2007/09/17",151,157,148
"2007/09/18",145,149,143
"2007/09/19",139,143,137
"2007/09/20",133,137,130
"2007/09/21",130,130,130
"2007/09/22",130,130,130
"2007/09/23",131,131,130
"2007/09/24",131,131,130
"2007/09/25",130,130,130
"2007/09/26",130,131,130
"2007/09/27",130,130,130
"2007/09/28",130,131,130
"2007/09/29",131,132,131
"2007/09/30",134,139,131
"2007/10/01",142,145,139
"2007/10/02",147,149,145
"2007/10/03",144,149,141
"2007/10/04",136,141,132
"2007/10/05",131,132,131
"2007/10/06",131,131,131
"2007/10/07",131,131,131
"2007/10/08",131,132,131
"2007/10/09",133,133,132
"2007/10/10",133,133,133
"2007/10/11",133,133,133
"2007/10/12",133,134,133
"2007/10/13",134,134,133
"2007/10/14",134,134,133
"2007/10/15",134,135,133
"2007/10/16",134,135,134
"2007/10/17",134,135,134
"2007/10/18",134,134,134
"2007/10/19",134,136,134
"2007/10/20",136,136,136
"2007/10/21",136,136,136
"2007/10/22",136,136,136
"2007/10/23",136,137,136
"2007/10/24",137,137,137
"2007/10/25",137,137,136
"2007/10/26",132,136,131
"2007/10/27",141,153,132
"2007/10/28",161,166,153
"2007/10/29",168,169,166
"2007/10/30",163,169,159
"2007/10/31",153,159,149
"2007/11/01",143,149,139
"2007/11/02",136,139,133
"2007/11/03",132,133,131
"2007/11/04",132,132,132
"2007/11/05",133,133,132
"2007/11/06",134,134,133
"2007/11/07",135,135,134
"2007/11/08",135,135,135
"2007/11/09",136,136,135
"2007/11/10",139,140,136
"2007/11/11",143,144,140
"2007/11/12",145,146,144
"2007/11/13",141,146,138
"2007/11/14",133,138,131
"2007/11/15",131,132,131
"2007/11/16",132,132,132
"2007/11/17",133,133,132
"2007/11/18",133,133,133
"2007/11/19",133,134,133
"2007/11/20",134,134,133
"2007/11/21",134,134,134
"2007/11/22",134,134,133
"2007/11/23",133,134,133
"2007/11/24",134,135,134
"2007/11/25",135,135,135
"2007/11/26",135,135,135
"2007/11/27",136,136,135
"2007/11/28",136,137,136
"2007/11/29",137,137,136
"2007/11/30",137,137,137
"2007/12/01",137,138,137
"2007/12/02",138,138,138
"2007/12/03",135,138,133
"2007/12/04",133,133,132
"2007/12/05",133,133,132
"2007/12/06",133,133,133
"2007/12/07",133,133,133
"2007/12/08",134,134,133
"2007/12/09",134,134,134
"2007/12/10",134,134,134
"2007/12/11",134,134,134
"2007/12/12",135,135,134
"2007/12/13",137,139,135
"2007/12/14",137,137,137
"2007/12/15",138,138,137
"2007/12/16",138,138,137
"2007/12/17",138,138,137
"2007/12/18",138,139,138
"2007/12/19",139,139,139
"2007/12/20",139,139,139
"2007/12/21",139,139,139
"2007/12/22",140,140,139
"2007/12/23",141,142,140
"2007/12/24",143,143,142
"2007/12/25",143,144,143
"2007/12/26",144,144,144
"2007/12/27",144,144,144
"2007/12/28",144,145,144
"2007/12/29",151,153,145
"2007/12/30",154,156,153
"2007/12/31",155,156,155
